CARTOSAT-2C

Last updated on Mon Sep 07 2026 00:02:45 GMT+0000 (Coordinated Universal Time)

1 41599U 16040A 26249.60031215 .00002196 00000+0 10747-3 0 9999 2 41599 97.4411 308.4219 0008194 201.3683 158.7210 15.19219191566075
UTC large
Height (km)
Speed (km/s)
/
Latitude / Longitude
Inclination (degrees)
Orbital Period (minutes)
Azimuth
Elevation
Range (km)
Doppler Factor

Next 0 passes for location: London (51.5072 / 0.1276)

No passes found over London.
CARTOSAT-2C